{"data":{"norad_id":63187,"intl_designator":"2025-048E","name":"STARLINK-11622 [DTC]","alt_names":[],"object_type":"PAYLOAD","status":"ACTIVE","operator":null,"country":"US","launch_date":"2025-03-13","launch_site_code":"AFETR","launch_vehicle":null,"mission":null,"orbit_class":"UNKNOWN","rcs_meters":null,"size_class":null,"mass_kg":null,"dimensions":null,"purposes":["comms"],"wikipedia_slug":null,"has_3d_model":false,"image_url":null,"decayed_at":null,"tle_current":{"epoch":"2026-09-21T07:33:18.872064Z","epoch_age_seconds":91902,"freshness":"FRESH","line1":"1 63187U 25048E   26264.31480176  .00072208  00000+0  56105-3 0  9992","line2":"2 63187  43.0008 221.1161 0001603 269.0490  91.0194 15.70852823 89288","mean_motion":15.70852823,"eccentricity":0.0001603,"inclination_deg":43.0008,"raan_deg":221.1161,"arg_perigee_deg":269.049,"mean_anomaly_deg":91.0194,"bstar":0.00056105,"rev_number":8928,"period_min":91.669950164389,"perigee_km":355.37885563959,"apogee_km":357.53796692844,"semimajor_km":6734.595411284,"source":"CELESTRAK","updated_at":"2026-09-22T09:00:49.795258Z"}}}